STARLINK-32078, 60338

Orbit data source: Space-Track

STARLINK-32078, 60338 is a payload satellite owned by SpaceX/Seattle (US) in LEO that was launched on Fri, 02 Aug 2024 UTC via an FALCON 9 launch vehicle from the Air Force Eastern Test Range (AFETR). Payload-class satellites include a variety of spacecraft equipped with specific instruments for various scientific and technological missions. These include communications satellites like Starlink; space stations such as the ISS; scientific satellites like the Hubble; Earth observation satellites from companies like Planet Labs, Umbra, and HawkEye 360; GPS; miniature CubeSats for education and research; and military/defense satellites.

Loading next visibility...
Identifier
60338, 2024-136K
Orbit
LEO
Last TLE update
1 day ago
Origin
Manufacturer
SpaceX/Seattle
Mission
Operational Commercial Communications
Bus & Motor
STARLINK V2M, Unknown motor
Mass
730 kg wet, ~700 kg dry
Launch date (UTC)
2024-08-02 (11 months ago)
Launch vehicle
FALCON 9
Launch site
Air Force Eastern Test Range (AFETR)
Object type
Payload
Rocket body
Debris
Shape & HBR
Box + 2 Pan, 29 m
Radar Cross Section
33.884 m², Large (>1 m²)

Expand to show TLE details & history

TLE from 1 day ago
0 STARLINK-32078
1 60338U 24136K   25181.24701589  .00000136  00000-0  16729-4 0  9998
2 60338  53.1595 168.2957 0001092  86.6771 273.4355 15.30192871 51018
Epoch: 2025-06-30T05:55Z
TLE epoch observation values (Epoch: 2025-06-30T05:55:42.172Z)
Latitude
-0.00002°
Longitude
160.81041°
Altitude
476.091 km
Speed
7.629 km/s
True Right ascension
11h 13m 10s
True Declination
0° 00' 00"
Sunlit
Object was in daylight at epoch
Visualization orbit readout
Latitude
-4.10914°
Longitude
-21.43616°
Altitude
476.82 km
Speed
7.628 km/s
Apparent Right ascension
01h 58m 43s
Apparent Declination
-51° 28' 12"
Sunlit
Object is in full shadow
Visualization observer readout
Local Sidereal Time
21:01:10
Azimuth
139.707° SSE
Elevation
-21.922°
Doppler factor
1
Orbital elements
Apogee altitude
476.241 km
Perigee altitude
474.744 km
Semi-major axis
6,853.63 km
Eccentricity
0.00011
Inclination
53.1595°
RAAN
168.2957°
Arg. of periapsis
86.6771°
True anomaly
Unknown
Mean anomaly
273.4355°
Eccentric anomaly
Unknown
Mean motion
3.82527 °/min
Orbital period
94.11 mins
BSTAR
0.000016729
Loading maneuver chart data...
Loading SW <> Apogee altitude chart data...
Loading historical data...
Loading historical data...
Loading historical data...
Loading historical data...
Loading historical data...
Loading historical data...
Loading historical data...

STARLINK-32078 Visibility forecast

Observer location: undefined°, undefined°

Span
Click to sort rows by Start time (UTC) header in descending order
Start Az.
Max El. time (UTC)
Max El. Az.
Max El.
End time (UTC)
End Az.
4 mins2025-07-02 00:24:54.464Z164.741° S2025-07-02 00:26:54.464Z123.094° SE18.778°2025-07-02 00:28:54.464Z86.108° E
5 mins2025-07-02 02:01:54.464Z256.227° W2025-07-02 02:03:54.464Z301.787° NW35.144°2025-07-02 02:06:54.464Z34.979° NE
4 mins2025-07-02 06:59:54.464Z355.307° N2025-07-02 07:00:54.464Z18.832° NNE21.587°2025-07-02 07:03:54.464Z78.984° E
5 mins2025-07-02 08:36:54.464Z296.55° NW2025-07-02 08:38:54.464Z252.552° W37.788°2025-07-02 08:41:54.464Z150.603° SSE
|